Location: *
(50.9167°S, 179.4000°W)
Time: 11:58:29
(UTC+00:00)

ATLAS 2AS CENTAUR R/B - Pass Details

Date: 22 June 2024
Orbit: 1019 x 1192 km, 63.7° (Epoch: 21 July)

Event Time Altitude Azimuth Distance (km) Brightness Sun altitude
Exits shadow 18:01:20 18° 217° (SW) 2,507 4.2 -17.7°
Maximum altitude 18:06:33 44° 152° (SSE) 1,562 3.6 -17.0°
Drops below altitude 10° 18:13:38 10° 80° (E) 3,110 6.5 -15.9°
Sets 18:16:34 0° 74° (ENE) 4,083 7.7 -15.4°
